Regional Weather Roundup
Issued by NWS

Home | Current Version | Previous Version | Text Only | Print | Product List | Glossary Off
Versions: 1 2 3 4 5 6 7 8 9 10 11 12 13 14 15 16 17 18 19 20 21 22 23 24 25 26 27 28 29 30 31 32 33 34 35 36 37 38 39 40 41 42 43 44 45 46 47 48 49 50

000
ASUS43 KDTX 201710
RWRMI
MICHIGAN HOURLY REGIONAL WEATHER ROUNDUP
NATIONAL WEATHER SERVICE DETROIT/PONTIAC MI
100 PM EDT WED SEP 20 2017

NOTE: "FAIR" INDICATES FEW OR NO CLOUDS BELOW 12,000 FEET WITH NO
SIGNIFICANT WEATHER AND/OR OBSTRUCTION TO VISIBILITY.

MIZ047>049-052>055-059>063-066>070-074>076-081>083-201800-
SOUTHEAST LOWER MICHIGAN

CITY           SKY/WX    TMP DP  RH WIND       PRES   REMARKS
ADRIAN         MOSUNNY   78  64  61 SW7       30.02S
ALMA           CLOUDY    76  64  66 SE6       29.99S
ANN ARBOR      SUNNY     78  67  68 VRB7      30.01S
BAD AXE        PTSUNNY   76  67  73 S8        30.00F
CARO           CLOUDY    74  66  77 SE6       30.00S
DETROIT CITY   PTSUNNY   77  69  76 VRB6      30.00F
DETROIT        MOSUNNY   76  69  79 S6        30.02S
FLINT          PTSUNNY   68  63  84 S7        30.01S
GROSSE ILE     SUNNY     74  68  83 S6        30.01S HAZE
HILLSDALE      CLOUDY    77  64  65 SW5       30.01F
HOWELL         PTSUNNY   76  64  64 SW6       30.00F

CITY           SKY/WX    TMP DP  RH WIND       PRES   REMARKS
JACKSON        PTSUNNY   80  63  55 VRB5      30.00F
LAMBERTVILLE   SUNNY     78  68  69 CALM      30.00F
LANSING        MOSUNNY   76  63  64 SE6       30.00F
LAPEER         CLOUDY    76  66  72 W9        30.01S
MASON          MOSUNNY   80  63  56 W7        30.00F
MONROE         SUNNY     76  67  74 CALM      30.01S
MT. CLEMENS    MOSUNNY   76  71  84 SE8       30.00S
PONTIAC        PTSUNNY   73  67  81 S6        30.01S
PORT HOPE        N/A     70  67  90 SE13      29.99F
PORT HURON     PTSUNNY   79  68  69 SE6       30.00F HAZE
TRI CITIES     CLOUDY    73  68  84 S13       30.00F HAZE
MIDLAND        CLOUDY    77  67  71 SE6       29.99S
TROY           MOSUNNY   76  68  77 SW8       30.03S HAZE
SAGINAW HB     CLOUDY    70  66  88 SE5       30.00S FOG
$$
MIZ043>046-050>051-056>058-064>065-071>073-077>080-201800-
SOUTHWEST LOWER MICHIGAN

CITY           SKY/WX    TMP DP  RH WIND       PRES   REMARKS
BATTLE CREEK   MOSUNNY   78  66  66 S9        30.00F
BENTON HARBOR  SUNNY     81  66  60 S13       29.95S
BIG RAPIDS     CLOUDY    72  64  75 SE8       30.00R
COLDWATER      MOSUNNY   77  67  70 SE5       30.00S
FREMONT        PTSUNNY   77  64  65 SE5       29.98R
HOLLAND        SUNNY     83  64  52 S8        29.97R
GRAND RAPIDS   MOSUNNY   79  63  57 S7        29.98S
IONIA          FAIR      78  62  58 E3        29.98F
KALAMAZOO      SUNNY     79  64  60 S10       29.99S
LUDINGTON      MOSUNNY   77  64  65 SE9       29.95S
MARSHALL       PTSUNNY   79  65  62 S8        29.99F
MOUNT PLEASANT PTSUNNY   77  65  67 SE7       29.98S
MUSKEGON       MOSUNNY   81  63  54 SE8       29.97R
SOUTH HAVEN    SUNNY     82  66  59 SE6       29.96S
$$
MIZ016>042-201800-
NORTHERN LOWER MICHIGAN

CITY           SKY/WX    TMP DP  RH WIND       PRES   REMARKS
ALPENA         CLOUDY    71  68  90 SE9       30.01S
BEAVER ISLAND  CLOUDY    75  64  70 S7        29.97R
BELLAIRE       MOSUNNY   77  64  62 S7        29.96R
CADILLAC       PTSUNNY   77  63  61 SE9G16    29.99R
CHARLEVOIX     CLOUDY    78  65  64 SE9       29.98S
FRANKFORT      MOSUNNY   78  65  64 SE10      29.94F
GAYLORD        CLOUDY    71  63  75 S9        30.00S
GRAYLING       PTSUNNY   74  63  68 SE9       30.01R
HARBOR SPRINGS MOSUNNY   77  64  65 SE3       29.96S
HOUGHTON LAKE  CLOUDY    72  64  76 SE8       30.02R
MANISTEE       CLOUDY    78  66  66 SE9       29.94R
OSCODA         MOSUNNY   76  66  71 SE7       29.99F
PELLSTON       PTSUNNY   76  65  68 E7        29.98R
ROGERS CITY    PTSUNNY   75  66  75 SE8       30.00S
TRAVERSE CITY  MOSUNNY   78  64  61 S7        29.95R
$$
MIZ007>008-015-201800-
EASTERN UPPER MICHIGAN

CITY           SKY/WX    TMP DP  RH WIND       PRES   REMARKS
KINROSS        CLOUDY    71  65  81 SE14      29.98S
MACKINAC ISLAN FOG       67  67 100 E6        29.97S VSB 3/4
NEWBERRY       CLOUDY    71  67  87 S12G17    29.95R
S. S. MARIE    CLOUDY    70  64  81 SE10      29.97F
MUNISING         N/A     67  64  90 S15G33    29.86F
$$
MIZ004>006-011>014-085-201800-
CENTRAL UPPER MICHIGAN

CITY           SKY/WX    TMP DP  RH WIND       PRES   REMARKS
MANISTIQUE     CLOUDY    66  60  81 S8        29.95S
ESCANABA       CLOUDY    66  64  93 SE12      29.88F FOG
MENOMINEE      CLOUDY    70  64  83 SE20      29.88F FOG
SAWYER-GWINN   LGT RAIN  63  61  94 S21G26    29.87F
$$
MIZ001>003-009>011-084-201800-
WESTERN UPPER MICHIGAN

CITY           SKY/WX    TMP DP  RH WIND       PRES   REMARKS
IRON MOUNTAIN  CLOUDY    65  61  87 SE14G24   29.83F FOG
HOUGHTON       MOSUNNY   69  59  70 SE9       29.74F
$$

ABBREVIATIONS USED IN REMARKS
   TC - TEMPERATURE IN CELSIUS
  WCI - WIND CHILL INDEX
   HX - HEAT INDEX
  VSB - VISIBILITY




USA.gov is the U.S. government's official web portal to all federal, state and local government web resources and services.